{"data":{"norad_id":63790,"epoch":"2026-05-24T20:31:22.858752Z","epoch_age_seconds":87579,"freshness":"FRESH","line1":"1 63790U 25091R   26144.85512568  .00013297  00000+0  49164-3 0  9997","line2":"2 63790  43.0024 342.1276 0001080 272.6378  87.4350 15.27594717 60505","mean_motion":15.27594717,"eccentricity":0.000108,"inclination_deg":43.0024,"raan_deg":342.1276,"arg_perigee_deg":272.6378,"mean_anomaly_deg":87.435,"bstar":0.00049164,"rev_number":6050,"period_min":94.265840538384,"perigee_km":482.26402506197,"apogee_km":483.7460317401,"semimajor_km":6861.142028401,"source":"CELESTRAK","updated_at":"2026-05-25T13:38:20.135919Z"}}